FW2567 Weather Reports


time (UTC)temp
F
wind
direction
speed
knots
gust
knots
rain 1hr
in
rain 24hr
in
rain mn
in
humidity
%
barometer
mb
20260831053147 51 157 1.7 4.3 0.00 0.00 0.00 82 1018.1
20260831051607 50 148 4.3 7.8 0.00 0.00 0.00 81 1018.1
20260831050030 52 157 0.0 2.6 0.00 0.00 0.00 80 1018.2
20260831044530 53 155 1.7 5.2 0.00 0.00 0.00 80 1018.2
20260831043030 53 156 3.5 6.1 0.00 0.00 0.00 79 1018.3
20260831040031 54 123 1.7 3.5 0.00 0.00 0.00 74 1018.2
20260831034605 56 158 0.9 2.6 0.00 0.00 0.00 70 1018.1
20260831033032 59 212 1.7 3.5 0.00 0.00 0.00 63 1018.0
20260831031532 62 267 2.6 5.2 0.00 0.00 0.00 57 1017.9
20260831030029 63 278 2.6 7.8 0.00 0.00 0.00 55 1017.9
20260831023032 65 269 3.5 7.0 0.00 0.00 0.00 53 1017.8
20260831021608 65 269 4.3 8.7 0.00 0.00 0.00 51 1017.9
20260831020033 66 269 4.3 11.3 0.00 0.00 0.00 50 1017.8
20260831014529 67 259 4.3 7.8 0.00 0.00 0.00 48 1017.8
20260831013030 68 255 5.2 9.6 0.00 0.00 0.00 47 1017.9
20260831011647 71 261 4.3 10.4 0.00 0.00 0.00 44 1017.9
20260831004531 73 271 4.3 10.4 0.00 0.00 0.00 40 1017.9
20260831003029 74 261 4.3 10.4 0.00 0.00 0.00 39 1017.9
20260831001529 75 265 4.3 9.6 0.00 0.00 0.00 38 1017.9
20260831000032 76 318 2.6 12.2 0.00 0.00 0.00 37 1017.9
20260830234532 75 321 1.7 7.0 0.00 0.00 0.00 37 1017.9
20260830231529 75 284 4.3 11.3 0.00 0.00 0.00 38 1018.0
20260830230029 75 292 5.2 11.3 0.00 0.00 0.00 38 1018.1
20260830224532 74 291 3.5 11.3 0.00 0.00 0.00 39 1018.3
20260830221531 73 294 5.2 12.2 0.00 0.00 0.00 41 1018.8
20260830220031 71 300 5.2 13.0 0.00 0.00 0.00 43 1019.2
20260830210030 70 294 4.3 9.6 0.00 0.00 0.00 47 1019.4
20260830204534 70 333 2.6 7.0 0.00 0.00 0.00 49 1019.6
20260830203030 69 29 4.3 9.6 0.00 0.00 0.00 50 1019.8
20260830201532 70 49 4.3 10.4 0.00 0.00 0.00 49 1019.8
20260830193031 70 57 3.5 6.1 0.00 0.00 0.00 47 1020.3
20260830191529 70 21 3.5 7.0 0.00 0.00 0.00 46 1020.4
20260830190030 70 18 3.5 7.0 0.00 0.00 0.00 44 1020.5
20260830184530 69 37 1.7 4.3 0.00 0.00 0.00 46 1020.7
20260830183031 68 35 1.7 5.2 0.00 0.00 0.00 48 1020.9
20260830181529 67 57 1.7 5.2 0.00 0.00 0.00 50 1021.0
20260830180106 67 46 1.7 5.2 0.00 0.00 0.00 50 1021.0
20260830174645 66 19 1.7 5.2 0.00 0.00 0.00 51 1021.1
20260830173031 66 44 1.7 4.3 0.00 0.00 0.00 52 1021.1
20260830171528 65 111 0.0 3.5 0.00 0.00 0.00 55 1021.2
20260830170029 65 75 1.7 5.2 0.00 0.00 0.00 56 1021.4
20260830164533 64 98 0.9 4.3 0.00 0.00 0.00 60 1021.6
20260830163106 62 116 0.9 3.5 0.00 0.00 0.00 62 1021.8
20260830161530 61 133 0.9 4.3 0.00 0.00 0.00 67 1021.9
20260830154533 56 212 0.0 2.6 0.00 0.00 0.00 81 1022.2
20260830151604 52 129 1.7 4.3 0.00 0.00 0.00 88 1022.2
20260830150029 48 267 0.0 2.6 0.00 0.00 0.00 92 1022.1
20260830144529 45 264 0.0 3.5 0.00 0.00 0.00 93 1022.1
20260830143031 40 220 0.9 4.3 0.00 0.00 0.00 93 1022.0
20260830140031 39 265 0.9 2.6 0.00 0.00 0.00 93 1021.5
20260830134529 39 260 0.0 2.6 0.00 0.00 0.00 92 1021.5
20260830133105 39 218 0.9 2.6 0.00 0.00 0.00 92 1021.4
20260830131531 40 255 0.0 2.6 0.00 0.00 0.00 91 1021.2
20260830130028 41 141 0.0 2.6 0.00 0.00 0.00 91 1021.2
20260830123032 42 134 0.9 4.3 0.00 0.00 0.00 91 1021.4
20260830121602 43 157 1.7 4.3 0.00 0.00 0.00 90 1021.4
20260830114530 44 156 3.5 7.0 0.00 0.00 0.00 91 1021.4
20260830111531 43 154 4.3 7.0 0.00 0.00 0.00 92 1021.5
20260830110032 43 150 4.3 7.8 0.00 0.00 0.00 92 1021.4
20260830104530 43 154 4.3 8.7 0.00 0.00 0.00 93 1021.4
20260830103109 42 157 3.5 6.1 0.00 0.00 0.00 93 1021.4
20260830101530 42 122 0.9 3.5 0.00 0.00 0.00 92 1021.2
20260830100031 43 113 0.9 3.5 0.00 0.00 0.00 93 1021.4
20260830094645 43 182 2.6 4.3 0.00 0.00 0.00 93 1021.4
20260830093030 42 163 4.3 6.1 0.00 0.00 0.00 92 1021.3
20260830090033 42 53 0.0 2.6 0.00 0.00 0.00 92 1021.4
20260830084531 43 301 0.0 2.6 0.00 0.00 0.00 92 1021.5
20260830083030 43 220 1.7 6.1 0.00 0.00 0.00 92 1021.6
20260830081530 43 199 2.6 7.8 0.00 0.00 0.00 91 1021.5
20260830080030 43 189 3.5 6.1 0.00 0.00 0.00 91 1021.6
20260830074531 44 194 0.9 3.5 0.00 0.00 0.00 91 1021.5
20260830073031 44 234 0.9 3.5 0.00 0.00 0.00 90 1021.5
20260830071529 44 210 0.9 4.3 0.00 0.00 0.00 90 1021.5
20260830070030 44 164 1.7 3.5 0.00 0.00 0.00 89 1021.5
20260830064605 45 177 0.9 5.2 0.00 0.00 0.00 87 1021.4
20260830063105 46 214 0.9 2.6 0.00 0.00 0.00 86 1021.5
20260830061529 48 140 0.9 3.5 0.00 0.00 0.00 85 1021.6
20260830060031 49 284 1.7 7.8 0.00 0.00 0.00 85 1021.6